Location: Wawayanda State Park
(41.1833°N, 74.4333°W)
Time: 05:44:25
(UTC-04:00)

RESURS DK-1 - Visible Passes

Search period start: 31 July 2016 00:00
Search period end: 10 August 2016 00:00
Orbit: 559 x 562 km, 69.9° (Epoch: 31 July)

Date Brightness Start Highest point End Pass type
(mag) Time Alt. Az. Time Alt. Az. Time Alt. Az.
31 Jul 5.3 02:43:56 10° NNE 02:46:31 16° NE 02:49:04 10° E visible
31 Jul 2.5 04:20:52 10° NW 04:24:52 51° WSW 04:28:52 10° S visible
01 Aug 4.9 02:42:19 10° N 02:45:27 20° NE 02:48:34 10° ESE visible
01 Aug 2.9 04:19:49 10° NW 04:23:38 36° WSW 04:25:38 22° SSW visible
02 Aug 4.4 02:40:50 10° N 02:44:22 26° ENE 02:46:37 17° ESE visible
02 Aug 3.3 04:18:53 10° NW 04:22:21 26° WSW 04:22:26 26° WSW visible
03 Aug 3.8 02:39:26 10° N 02:43:16 35° ENE 02:43:56 33° E visible
03 Aug 4.1 04:18:05 10° WNW 04:19:47 17° W 04:19:47 17° W visible
04 Aug 3.4 02:38:06 10° NNW 02:41:36 44° NE 02:41:36 44° NE visible
05 Aug 3.7 02:36:50 10° NNW 02:39:30 37° N 02:39:30 37° N visible
06 Aug 5.3 01:00:31 10° NE 01:01:04 10° NE 01:01:38 10° NE visible
06 Aug 4.2 02:35:38 10° NNW 02:37:32 26° NNW 02:37:32 26° NNW visible
07 Aug 5.2 00:58:00 10° NNE 00:59:49 13° NE 00:59:49 13° NE visible
07 Aug 4.6 02:34:28 10° NNW 02:35:41 19° NW 02:35:41 19° NW visible
08 Aug 5.0 00:56:15 10° N 00:58:04 16° NE 00:58:04 16° NE visible
08 Aug 5.0 02:33:23 10° NW 02:33:58 14° NW 02:33:58 14° NW visible
09 Aug 4.9 00:54:41 10° N 00:56:24 18° NNE 00:56:24 18° NNE visible
